Portada
METAR-TAF:

METAR-TAF

Aeroports :

Bandar Kangan, Iran

latitud: 27-49-14N, longitud: 52-21-08E, altitud: 662 m

Observació

L'informe es va fer fa 8 hores i 16 minuts, a les 15:00 UTC
Vent 8 kt del Nord-Est
Temperatura 17°C
Humitat 77%
Pressió 1020 hPa
Visibilitat 10 km o més
Escasses núvols a una alçada de 3000 ft, Cumulonimbus.
Núvols disperses a una alçada de 4000 ft
Cel ennuvolat a una alçada de 9000 ft

METAR: OIBJ 171500Z 05008KT 9999 FEW030CB SCT040 BKN090 17/13 Q1020

Hora: 02:46 (23:16 UTC)


TAF: manca

Observacions i pronòstics meteorològics de més de 4000 aeroports (METAR i TAF).

Les estacions disponibles són els punts grocs i vermells al mapa.

Posi el ratolí al punt desitjat per veure el nom de l'estació.

Feu clic per veure les observacions i els pronòstics meteorològics.

Per canviar el mapa: feu clic els botons verds amb una creu de color negre per apropar; al botó verd amb un guió per allunyar la imatge; o en les fletxes verdes per a mapes adjacents.


METAR-TAF: